| time (UTC) | temp F | wind direction | speed MPH | gust MPH | rain 1hr in | rain 24hr in | rain mn in | humidity % | barometer mb |
| 20260902155012 | 82 | 167 | 1.0 | 5.0 | 0.00 | 0.00 | 0.00 | 31 | 1019.3 |
| 20260902154538 | 81 | 125 | 1.0 | 4.0 | 0.00 | 0.00 | 0.00 | 33 | 1019.3 |
| 20260902154014 | 81 | 320 | 1.0 | 5.0 | 0.00 | 0.00 | 0.00 | 34 | 1019.2 |
| 20260902153515 | 80 | 62 | 0.0 | 5.0 | 0.00 | 0.00 | 0.00 | 37 | 1019.2 |
| 20260902153025 | 79 | 300 | 1.0 | 4.0 | 0.00 | 0.00 | 0.00 | 37 | 1019.2 |
| 20260902152515 | 79 | 189 | 1.0 | 6.0 | 0.00 | 0.00 | 0.00 | 37 | 1019.2 |
| 20260902152018 | 78 | 96 | 0.0 | 6.0 | 0.00 | 0.00 | 0.00 | 38 | 1019.1 |
| 20260902151536 | 78 | 46 | 1.0 | 6.0 | 0.00 | 0.00 | 0.00 | 38 | 1019.0 |
| 20260902151013 | 77 | 306 | 1.0 | 6.0 | 0.00 | 0.00 | 0.00 | 40 | 1019.1 |
| 20260902150518 | 76 | 71 | 0.0 | 7.0 | 0.00 | 0.00 | 0.00 | 41 | 1019.0 |
| 20260902150026 | 75 | 66 | 2.0 | 7.0 | 0.00 | 0.00 | 0.00 | 40 | 1019.0 |
| 20260902145517 | 75 | 108 | 1.0 | 5.0 | 0.00 | 0.00 | 0.00 | 42 | 1019.0 |
| 20260902145011 | 74 | 108 | 1.0 | 4.0 | 0.00 | 0.00 | 0.00 | 42 | 1019.0 |
| 20260902144518 | 73 | 104 | 1.0 | 4.0 | 0.00 | 0.00 | 0.00 | 42 | 1019.0 |
| 20260902144012 | 72 | 287 | 0.0 | 3.0 | 0.00 | 0.00 | 0.00 | 44 | 1019.1 |
| 20260902143515 | 71 | 285 | 0.0 | 5.0 | 0.00 | 0.00 | 0.00 | 46 | 1019.2 |
| 20260902143025 | 70 | 285 | 2.0 | 5.0 | 0.00 | 0.00 | 0.00 | 48 | 1019.2 |
| 20260902142518 | 70 | 284 | 2.0 | 5.0 | 0.00 | 0.00 | 0.00 | 50 | 1019.2 |
| 20260902142011 | 69 | 285 | 1.0 | 5.0 | 0.00 | 0.00 | 0.00 | 51 | 1019.0 |
| 20260902141534 | 69 | 284 | 2.0 | 5.0 | 0.00 | 0.00 | 0.00 | 52 | 1018.9 |
| 20260902141018 | 68 | 285 | 1.0 | 3.0 | 0.00 | 0.00 | 0.00 | 52 | 1019.0 |
| 20260902140514 | 68 | 282 | 0.0 | 2.0 | 0.00 | 0.00 | 0.00 | 53 | 1018.9 |
| 20260902140029 | 68 | 282 | 0.0 | 2.0 | 0.00 | 0.00 | 0.00 | 51 | 1018.8 |
| 20260902135516 | 67 | 279 | 0.0 | 2.0 | 0.00 | 0.00 | 0.00 | 54 | 1018.9 |
| 20260902135013 | 66 | 279 | 0.0 | 2.0 | 0.00 | 0.00 | 0.00 | 55 | 1018.9 |
| 20260902134530 | 64 | 279 | 0.0 | 3.0 | 0.00 | 0.00 | 0.00 | 56 | 1018.8 |
| 20260902134011 | 63 | 279 | 0.0 | 3.0 | 0.00 | 0.00 | 0.00 | 54 | 1018.8 |
| 20260902133515 | 62 | 275 | 1.0 | 3.0 | 0.00 | 0.00 | 0.00 | 56 | 1018.7 |
| 20260902133021 | 61 | 285 | 0.0 | 2.0 | 0.00 | 0.00 | 0.00 | 57 | 1018.7 |
| 20260902132513 | 60 | 270 | 0.0 | 3.0 | 0.00 | 0.00 | 0.00 | 60 | 1018.7 |
| 20260902132015 | 60 | 275 | 0.0 | 4.0 | 0.00 | 0.00 | 0.00 | 62 | 1018.8 |
| 20260902131527 | 59 | 282 | 0.0 | 4.0 | 0.00 | 0.00 | 0.00 | 65 | 1018.7 |
| 20260902131004 | 58 | 286 | 0.0 | 3.0 | 0.00 | 0.00 | 0.00 | 69 | 1018.7 |
| 20260902130505 | 57 | 287 | 1.0 | 3.0 | 0.00 | 0.00 | 0.00 | 71 | 1018.6 |
| 20260902130024 | 57 | 279 | 0.0 | 3.0 | 0.00 | 0.00 | 0.00 | 72 | 1018.5 |
| 20260902125506 | 57 | 270 | 0.0 | 2.0 | 0.00 | 0.00 | 0.00 | 73 | 1018.5 |
| 20260902125008 | 57 | 270 | 0.0 | 2.0 | 0.00 | 0.00 | 0.00 | 73 | 1018.6 |
| 20260902124513 | 57 | 270 | 0.0 | 3.0 | 0.00 | 0.00 | 0.00 | 73 | 1018.7 |
| 20260902124009 | 57 | 287 | 0.0 | 3.0 | 0.00 | 0.00 | 0.00 | 73 | 1018.6 |
| 20260902123508 | 56 | 270 | 0.0 | 2.0 | 0.00 | 0.00 | 0.00 | 74 | 1018.5 |
| 20260902123027 | 56 | 279 | 0.0 | 3.0 | 0.00 | 0.00 | 0.00 | 74 | 1018.4 |
| 20260902122511 | 56 | 270 | 0.0 | 3.0 | 0.00 | 0.00 | 0.00 | 74 | 1018.4 |
| 20260902122014 | 56 | 270 | 1.0 | 3.0 | 0.00 | 0.00 | 0.00 | 75 | 1018.5 |
| 20260902121526 | 56 | 281 | 0.0 | 2.0 | 0.00 | 0.00 | 0.00 | 75 | 1018.5 |
| 20260902121003 | 56 | 279 | 0.0 | 2.0 | 0.00 | 0.00 | 0.00 | 75 | 1018.4 |
| 20260902120504 | 56 | 287 | 1.0 | 3.0 | 0.00 | 0.00 | 0.00 | 75 | 1018.4 |
| 20260902120004 | 56 | 286 | 0.0 | 3.0 | 0.00 | 0.00 | 0.00 | 75 | 1018.5 |
| 20260902115503 | 57 | 285 | 0.0 | 2.0 | 0.00 | 0.00 | 0.00 | 74 | 1018.4 |
| 20260902115005 | 57 | 270 | 0.0 | 3.0 | 0.00 | 0.00 | 0.00 | 74 | 1018.3 |
| 20260902114512 | 57 | 270 | 0.0 | 3.0 | 0.00 | 0.00 | 0.00 | 74 | 1018.2 |
| 20260902114007 | 57 | 281 | 0.0 | 2.0 | 0.00 | 0.00 | 0.00 | 75 | 1018.2 |
| 20260902113510 | 57 | 270 | 0.0 | 5.0 | 0.00 | 0.00 | 0.00 | 75 | 1018.3 |
| 20260902113014 | 57 | 288 | 0.0 | 5.0 | 0.00 | 0.00 | 0.00 | 73 | 1018.3 |
| 20260902112509 | 57 | 288 | 0.0 | 0.0 | 0.00 | 0.00 | 0.00 | 72 | 1018.3 |
| 20260902112009 | 57 | 287 | 0.0 | 0.0 | 0.00 | 0.00 | 0.00 | 72 | 1018.2 |
| 20260902111525 | 58 | 283 | 0.0 | 0.0 | 0.00 | 0.00 | 0.00 | 72 | 1018.2 |
| 20260902111013 | 58 | 285 | 0.0 | 0.0 | 0.00 | 0.00 | 0.00 | 72 | 1018.2 |
| 20260902110512 | 58 | 270 | 0.0 | 0.0 | 0.00 | 0.00 | 0.00 | 72 | 1018.3 |
| 20260902110040 | 58 | 285 | 0.0 | 0.0 | 0.00 | 0.00 | 0.00 | 71 | 1018.2 |
| 20260902105503 | 58 | 286 | 0.0 | 0.0 | 0.00 | 0.00 | 0.00 | 70 | 1018.2 |
| 20260902105004 | 58 | 270 | 0.0 | 0.0 | 0.00 | 0.00 | 0.00 | 69 | 1018.2 |
| 20260902104506 | 59 | 270 | 0.0 | 0.0 | 0.00 | 0.00 | 0.00 | 69 | 1018.2 |
| 20260902104008 | 59 | 270 | 0.0 | 0.0 | 0.00 | 0.00 | 0.00 | 69 | 1018.2 |
| 20260902103508 | 59 | 270 | 0.0 | 0.0 | 0.00 | 0.00 | 0.00 | 69 | 1018.0 |
| 20260902103009 | 59 | 270 | 0.0 | 0.0 | 0.00 | 0.00 | 0.00 | 68 | 1018.0 |
| 20260902102509 | 59 | 270 | 0.0 | 0.0 | 0.00 | 0.00 | 0.00 | 67 | 1018.0 |
| 20260902102010 | 60 | 270 | 0.0 | 0.0 | 0.00 | 0.00 | 0.00 | 66 | 1018.1 |
| 20260902101513 | 60 | 270 | 0.0 | 0.0 | 0.00 | 0.00 | 0.00 | 66 | 1018.1 |
| 20260902101009 | 60 | 270 | 0.0 | 0.0 | 0.00 | 0.00 | 0.00 | 66 | 1018.2 |
| 20260902100513 | 60 | 270 | 0.0 | 0.0 | 0.00 | 0.00 | 0.00 | 64 | 1018.2 |
| 20260902100024 | 61 | 270 | 0.0 | 0.0 | 0.00 | 0.00 | 0.00 | 63 | 1018.2 |
| 20260902095514 | 61 | 270 | 0.0 | 0.0 | 0.00 | 0.00 | 0.00 | 62 | 1018.2 |
| 20260902095016 | 61 | 270 | 0.0 | 0.0 | 0.00 | 0.00 | 0.00 | 60 | 1018.2 |
| 20260902094530 | 61 | 270 | 0.0 | 0.0 | 0.00 | 0.00 | 0.00 | 60 | 1018.2 |
| 20260902094004 | 62 | 270 | 0.0 | 0.0 | 0.00 | 0.00 | 0.00 | 58 | 1018.2 |
| 20260902093504 | 62 | 270 | 0.0 | 0.0 | 0.00 | 0.00 | 0.00 | 59 | 1018.2 |
| 20260902093012 | 62 | 270 | 0.0 | 0.0 | 0.00 | 0.00 | 0.00 | 58 | 1018.2 |
| 20260902092504 | 62 | 270 | 0.0 | 0.0 | 0.00 | 0.00 | 0.00 | 57 | 1018.2 |
| 20260902092007 | 63 | 270 | 0.0 | 0.0 | 0.00 | 0.00 | 0.00 | 55 | 1018.2 |
| 20260902091515 | 63 | 270 | 0.0 | 0.0 | 0.00 | 0.00 | 0.00 | 54 | 1018.2 |
| 20260902091012 | 63 | 282 | 0.0 | 1.0 | 0.00 | 0.00 | 0.00 | 53 | 1018.2 |
| 20260902090513 | 63 | 282 | 0.0 | 1.0 | 0.00 | 0.00 | 0.00 | 53 | 1018.3 |
| 20260902090018 | 64 | 282 | 0.0 | 1.0 | 0.00 | 0.00 | 0.00 | 53 | 1018.2 |
| 20260902085511 | 64 | 282 | 0.0 | 1.0 | 0.00 | 0.00 | 0.00 | 52 | 1018.2 |
| 20260902085011 | 64 | 282 | 0.0 | 1.0 | 0.00 | 0.00 | 0.00 | 51 | 1018.2 |
| 20260902084528 | 64 | 282 | 0.0 | 2.0 | 0.00 | 0.00 | 0.00 | 52 | 1018.1 |
| 20260902084015 | 65 | 282 | 1.0 | 4.0 | 0.00 | 0.00 | 0.00 | 50 | 1018.1 |
| 20260902083516 | 65 | 275 | 1.0 | 4.0 | 0.00 | 0.00 | 0.00 | 48 | 1018.0 |
| 20260902083036 | 65 | 275 | 1.0 | 3.0 | 0.00 | 0.00 | 0.00 | 49 | 1018.0 |
| 20260902082503 | 65 | 279 | 0.0 | 3.0 | 0.00 | 0.00 | 0.00 | 49 | 1018.0 |
| 20260902082005 | 65 | 279 | 1.0 | 5.0 | 0.00 | 0.00 | 0.00 | 50 | 1018.0 |
| 20260902081511 | 65 | 279 | 2.0 | 5.0 | 0.00 | 0.00 | 0.00 | 50 | 1018.1 |
| 20260902081006 | 65 | 279 | 1.0 | 4.0 | 0.00 | 0.00 | 0.00 | 50 | 1018.2 |
| 20260902080509 | 65 | 287 | 1.0 | 4.0 | 0.00 | 0.00 | 0.00 | 50 | 1018.2 |
| 20260902080023 | 65 | 281 | 0.0 | 4.0 | 0.00 | 0.00 | 0.00 | 50 | 1018.2 |
| 20260902075511 | 65 | 279 | 0.0 | 5.0 | 0.00 | 0.00 | 0.00 | 49 | 1018.2 |
| 20260902075014 | 65 | 287 | 2.0 | 5.0 | 0.00 | 0.00 | 0.00 | 49 | 1018.2 |
| 20260902074524 | 66 | 279 | 2.0 | 5.0 | 0.00 | 0.00 | 0.00 | 50 | 1018.2 |
| 20260902074016 | 66 | 279 | 1.0 | 4.0 | 0.00 | 0.00 | 0.00 | 50 | 1018.2 |
| 20260902073516 | 66 | 279 | 0.0 | 2.0 | 0.00 | 0.00 | 0.00 | 51 | 1018.2 |
| 20260902073031 | 66 | 279 | 1.0 | 4.0 | 0.00 | 0.00 | 0.00 | 50 | 1018.2 |
| 20260902072515 | 66 | 287 | 0.0 | 4.0 | 0.00 | 0.00 | 0.00 | 50 | 1018.2 |
| 20260902072014 | 66 | 279 | 2.0 | 4.0 | 0.00 | 0.00 | 0.00 | 49 | 1018.4 |
| 20260902071507 | 66 | 279 | 1.0 | 3.0 | 0.00 | 0.00 | 0.00 | 49 | 1018.5 |
| 20260902071004 | 66 | 279 | 0.0 | 1.0 | 0.00 | 0.00 | 0.00 | 49 | 1018.4 |
| 20260902070507 | 66 | 282 | 0.0 | 3.0 | 0.00 | 0.00 | 0.00 | 48 | 1018.4 |
| 20260902070013 | 66 | 284 | 0.0 | 3.0 | 0.00 | 0.00 | 0.00 | 49 | 1018.4 |
| 20260902065508 | 67 | 285 | 0.0 | 3.0 | 0.00 | 0.00 | 0.00 | 48 | 1018.4 |
| 20260902065012 | 67 | 286 | 1.0 | 3.0 | 0.00 | 0.00 | 0.00 | 48 | 1018.5 |
| 20260902064521 | 67 | 270 | 0.0 | 4.0 | 0.00 | 0.00 | 0.00 | 48 | 1018.5 |
| 20260902064013 | 67 | 270 | 2.0 | 4.0 | 0.00 | 0.00 | 0.00 | 48 | 1018.5 |
| 20260902063512 | 67 | 270 | 0.0 | 6.0 | 0.00 | 0.00 | 0.00 | 48 | 1018.5 |
| 20260902063025 | 67 | 270 | 3.0 | 7.0 | 0.00 | 0.00 | 0.00 | 47 | 1018.4 |
| 20260902062516 | 68 | 283 | 3.0 | 7.0 | 0.00 | 0.00 | 0.00 | 46 | 1018.5 |
| 20260902062014 | 68 | 282 | 3.0 | 8.0 | 0.00 | 0.00 | 0.00 | 47 | 1018.5 |
| 20260902061529 | 67 | 285 | 4.0 | 8.0 | 0.00 | 0.00 | 0.00 | 46 | 1018.5 |
| 20260902061028 | 67 | 270 | 2.0 | 7.0 | 0.00 | 0.00 | 0.00 | 47 | 1018.2 |
| 20260902060515 | 67 | 282 | 3.0 | 7.0 | 0.00 | 0.00 | 0.00 | 47 | 1018.2 |
| 20260902060008 | 68 | 281 | 3.0 | 7.0 | 0.00 | 0.00 | 0.00 | 47 | 1018.2 |
| 20260902055508 | 68 | 281 | 3.0 | 8.0 | 0.00 | 0.00 | 0.00 | 47 | 1018.3 |
| 20260902055010 | 68 | 281 | 4.0 | 8.0 | 0.00 | 0.00 | 0.00 | 47 | 1018.4 |
| 20260902054522 | 68 | 281 | 3.0 | 8.0 | 0.00 | 0.00 | 0.00 | 47 | 1018.4 |
| 20260902054009 | 68 | 270 | 3.0 | 9.0 | 0.00 | 0.00 | 0.00 | 47 | 1018.4 |
| 20260902053512 | 68 | 270 | 4.0 | 9.0 | 0.00 | 0.00 | 0.00 | 47 | 1018.4 |
| 20260902053019 | 68 | 281 | 3.0 | 10.0 | 0.00 | 0.00 | 0.00 | 47 | 1018.4 |
| 20260902052514 | 68 | 281 | 5.0 | 10.0 | 0.00 | 0.00 | 0.00 | 47 | 1018.4 |
| 20260902052014 | 68 | 279 | 4.0 | 8.0 | 0.00 | 0.00 | 0.00 | 47 | 1018.4 |
| 20260902051528 | 68 | 270 | 3.0 | 8.0 | 0.00 | 0.00 | 0.00 | 47 | 1018.4 |
| 20260902051017 | 67 | 270 | 4.0 | 7.0 | 0.00 | 0.00 | 0.00 | 48 | 1018.4 |
| 20260902050520 | 67 | 281 | 3.0 | 5.0 | 0.00 | 0.00 | 0.00 | 48 | 1018.4 |
| 20260902050029 | 67 | 281 | 1.0 | 5.0 | 0.00 | 0.00 | 0.00 | 49 | 1018.4 |
| 20260902045517 | 68 | 281 | 1.0 | 5.0 | 0.00 | 0.00 | 0.00 | 49 | 1018.4 |
| 20260902045004 | 68 | 280 | 2.0 | 4.0 | 0.00 | 0.00 | 0.00 | 50 | 1018.4 |
| 20260902044513 | 68 | 270 | 2.0 | 5.0 | 0.00 | 0.00 | 0.00 | 50 | 1018.5 |
| 20260902044008 | 68 | 270 | 2.0 | 5.0 | 0.00 | 0.00 | 0.00 | 50 | 1018.4 |
| 20260902043510 | 68 | 287 | 2.0 | 4.0 | 0.00 | 0.00 | 0.00 | 50 | 1018.5 |
| 20260902043017 | 68 | 289 | 1.0 | 4.0 | 0.00 | 0.00 | 0.00 | 52 | 1018.5 |
| 20260902042511 | 68 | 270 | 0.0 | 3.0 | 0.00 | 0.00 | 0.00 | 53 | 1018.7 |
| 20260902042012 | 68 | 270 | 1.0 | 3.0 | 0.00 | 0.00 | 0.00 | 53 | 1018.7 |
| 20260902041523 | 68 | 270 | 0.0 | 1.0 | 0.00 | 0.00 | 0.00 | 54 | 1018.7 |
| 20260902041016 | 68 | 270 | 0.0 | 4.0 | 0.00 | 0.00 | 0.00 | 56 | 1018.8 |
| 20260902040504 | 68 | 270 | 0.0 | 4.0 | 0.00 | 0.01 | 0.00 | 55 | 1018.8 |
| 20260902040011 | 68 | 270 | 2.0 | 4.0 | 0.00 | 0.01 | 0.00 | 54 | 1018.8 |
| 20260902035504 | 69 | 270 | 0.0 | 0.0 | 0.00 | 0.01 | 0.00 | 58 | 1018.7 |
| 20260902035010 | 69 | 284 | 0.0 | 3.0 | 0.00 | 0.02 | 0.00 | 58 | 1018.5 |
| 20260902034508 | 69 | 284 | 1.0 | 3.0 | 0.00 | 0.03 | 0.00 | 57 | 1018.4 |
| 20260902034007 | 69 | 281 | 0.0 | 1.0 | 0.00 | 0.03 | 0.00 | 54 | 1018.5 |
| 20260902033512 | 70 | 281 | 0.0 | 2.0 | 0.00 | 0.03 | 0.00 | 55 | 1018.5 |
| 20260902033012 | 70 | 280 | 0.0 | 2.0 | 0.00 | 0.03 | 0.00 | 52 | 1018.4 |
| 20260902032512 | 70 | 280 | 0.0 | 0.0 | 0.00 | 0.03 | 0.00 | 53 | 1018.4 |
| 20260902032016 | 71 | 280 | 0.0 | 0.0 | 0.00 | 0.03 | 0.00 | 53 | 1018.4 |
| 20260902031518 | 71 | 270 | 0.0 | 0.0 | 0.00 | 0.03 | 0.00 | 51 | 1018.4 |
| 20260902031011 | 71 | 270 | 0.0 | 2.0 | 0.00 | 0.03 | 0.00 | 51 | 1018.5 |
| 20260902030514 | 72 | 270 | 0.0 | 2.0 | 0.00 | 0.03 | 0.00 | 51 | 1018.3 |
| 20260902030028 | 72 | 270 | 0.0 | 2.0 | 0.00 | 0.03 | 0.00 | 50 | 1018.4 |
| 20260902025519 | 72 | 279 | 0.0 | 2.0 | 0.00 | 0.03 | 0.00 | 50 | 1018.3 |
| 20260902025005 | 73 | 279 | 0.0 | 2.0 | 0.00 | 0.03 | 0.00 | 50 | 1018.2 |
| 20260902024507 | 73 | 279 | 0.0 | 0.0 | 0.00 | 0.03 | 0.00 | 49 | 1018.1 |
| 20260902024006 | 73 | 279 | 0.0 | 0.0 | 0.00 | 0.03 | 0.00 | 49 | 1018.0 |
| 20260902023506 | 74 | 279 | 0.0 | 0.0 | 0.00 | 0.03 | 0.00 | 48 | 1017.9 |
| 20260902023027 | 74 | 282 | 0.0 | 0.0 | 0.00 | 0.03 | 0.00 | 47 | 1017.8 |
| 20260902022507 | 75 | 270 | 0.0 | 0.0 | 0.00 | 0.03 | 0.00 | 46 | 1017.8 |
| 20260902022012 | 75 | 270 | 0.0 | 0.0 | 0.00 | 0.03 | 0.00 | 44 | 1017.7 |
| 20260902021527 | 75 | 286 | 0.0 | 1.0 | 0.00 | 0.03 | 0.00 | 44 | 1017.7 |
| 20260902021016 | 76 | 270 | 0.0 | 2.0 | 0.00 | 0.03 | 0.00 | 44 | 1017.6 |
| 20260902020514 | 77 | 279 | 0.0 | 2.0 | 0.00 | 0.03 | 0.00 | 43 | 1017.5 |
| 20260902020022 | 77 | 329 | 0.0 | 2.0 | 0.00 | 0.03 | 0.00 | 43 | 1017.4 |
| 20260902015513 | 77 | 25 | 0.0 | 2.0 | 0.00 | 0.03 | 0.00 | 42 | 1017.4 |
| 20260902015013 | 78 | 73 | 0.0 | 0.0 | 0.00 | 0.03 | 0.00 | 42 | 1017.4 |
| 20260902014529 | 78 | 74 | 0.0 | 1.0 | 0.00 | 0.03 | 0.00 | 41 | 1017.4 |
| 20260902014014 | 78 | 73 | 0.0 | 1.0 | 0.00 | 0.03 | 0.00 | 40 | 1017.3 |
| 20260902013510 | 78 | 74 | 0.0 | 2.0 | 0.00 | 0.03 | 0.00 | 40 | 1017.3 |
| 20260902013007 | 78 | 74 | 0.0 | 5.0 | 0.00 | 0.03 | 0.00 | 39 | 1017.3 |
| 20260902012508 | 79 | 77 | 1.0 | 5.0 | 0.00 | 0.03 | 0.00 | 39 | 1017.3 |
| 20260902012008 | 79 | 30 | 1.0 | 5.0 | 0.00 | 0.03 | 0.00 | 39 | 1017.2 |
| 20260902011513 | 79 | 29 | 1.0 | 5.0 | 0.00 | 0.03 | 0.00 | 39 | 1017.2 |
| 20260902011012 | 80 | 53 | 2.0 | 5.0 | 0.00 | 0.03 | 0.00 | 38 | 1017.2 |
| 20260902010512 | 80 | 51 | 1.0 | 4.0 | 0.00 | 0.03 | 0.00 | 37 | 1017.1 |
| 20260902010019 | 81 | 70 | 1.0 | 3.0 | 0.00 | 0.03 | 0.00 | 37 | 1017.1 |
| 20260902005515 | 81 | 242 | 1.0 | 3.0 | 0.00 | 0.03 | 0.00 | 36 | 1017.1 |
| 20260902005017 | 81 | 206 | 0.0 | 5.0 | 0.00 | 0.03 | 0.00 | 37 | 1017.2 |
| 20260902004525 | 82 | 63 | 1.0 | 5.0 | 0.00 | 0.03 | 0.00 | 37 | 1017.2 |
| 20260902004015 | 82 | 69 | 2.0 | 5.0 | 0.00 | 0.03 | 0.00 | 36 | 1017.2 |
| 20260902003516 | 83 | 28 | 1.0 | 3.0 | 0.00 | 0.03 | 0.00 | 33 | 1017.2 |
| 20260902003033 | 83 | 66 | 0.0 | 4.0 | 0.00 | 0.03 | 0.00 | 32 | 1017.3 |
| 20260902002505 | 84 | 69 | 1.0 | 4.0 | 0.00 | 0.03 | 0.00 | 34 | 1017.3 |
| 20260902002006 | 84 | 49 | 1.0 | 4.0 | 0.00 | 0.03 | 0.00 | 33 | 1017.3 |
| 20260902001510 | 84 | 89 | 1.0 | 6.0 | 0.00 | 0.03 | 0.00 | 32 | 1017.3 |
| 20260902001009 | 84 | 13 | 1.0 | 6.0 | 0.00 | 0.03 | 0.00 | 33 | 1017.3 |
| 20260902000508 | 85 | 93 | 1.0 | 6.0 | 0.00 | 0.03 | 0.00 | 32 | 1017.3 |
| 20260902000016 | 85 | 356 | 0.0 | 3.0 | 0.00 | 0.03 | 0.00 | 32 | 1017.3 |
| 20260901235510 | 85 | 8 | 0.0 | 4.0 | 0.00 | 0.03 | 0.00 | 30 | 1017.3 |
| 20260901235011 | 85 | 212 | 1.0 | 4.0 | 0.00 | 0.03 | 0.00 | 32 | 1017.3 |
| 20260901234526 | 85 | 314 | 1.0 | 6.0 | 0.00 | 0.03 | 0.00 | 31 | 1017.3 |
| 20260901234018 | 84 | 179 | 1.0 | 6.0 | 0.00 | 0.03 | 0.00 | 32 | 1017.3 |
| 20260901233514 | 84 | 57 | 1.0 | 5.0 | 0.00 | 0.03 | 0.00 | 31 | 1017.2 |
| 20260901233027 | 85 | 56 | 2.0 | 9.0 | 0.00 | 0.03 | 0.00 | 30 | 1017.3 |
| 20260901232514 | 85 | 129 | 1.0 | 9.0 | 0.00 | 0.03 | 0.00 | 31 | 1017.2 |
| 20260901232020 | 85 | 359 | 1.0 | 6.0 | 0.00 | 0.03 | 0.00 | 29 | 1017.3 |
| 20260901231534 | 85 | 58 | 1.0 | 4.0 | 0.00 | 0.03 | 0.00 | 32 | 1017.3 |
| 20260901231005 | 85 | 78 | 0.0 | 4.0 | 0.00 | 0.03 | 0.00 | 28 | 1017.3 |
| 20260901230506 | 85 | 84 | 0.0 | 2.0 | 0.00 | 0.03 | 0.00 | 30 | 1017.3 |
| 20260901230013 | 85 | 84 | 0.0 | 6.0 | 0.00 | 0.03 | 0.00 | 32 | 1017.3 |
| 20260901225513 | 85 | 25 | 0.0 | 8.0 | 0.00 | 0.03 | 0.00 | 30 | 1017.3 |
| 20260901225012 | 85 | 48 | 3.0 | 8.0 | 0.00 | 0.03 | 0.00 | 31 | 1017.3 |
| 20260901224520 | 86 | 57 | 0.0 | 5.0 | 0.00 | 0.03 | 0.00 | 29 | 1017.3 |
| 20260901224016 | 86 | 55 | 1.0 | 3.0 | 0.00 | 0.03 | 0.00 | 30 | 1017.3 |
| 20260901223513 | 87 | 346 | 0.0 | 7.0 | 0.00 | 0.03 | 0.00 | 30 | 1017.2 |
| 20260901223029 | 87 | 50 | 2.0 | 8.0 | 0.00 | 0.03 | 0.00 | 28 | 1017.2 |
| 20260901222516 | 87 | 66 | 1.0 | 8.0 | 0.00 | 0.03 | 0.00 | 28 | 1017.2 |
| 20260901222016 | 88 | 242 | 1.0 | 9.0 | 0.00 | 0.03 | 0.00 | 27 | 1017.2 |
| 20260901221534 | 89 | 46 | 4.0 | 9.0 | 0.00 | 0.03 | 0.00 | 27 | 1017.2 |
| 20260901221016 | 90 | 57 | 2.0 | 8.0 | 0.00 | 0.03 | 0.00 | 26 | 1017.3 |
| 20260901220518 | 90 | 225 | 0.0 | 7.0 | 0.00 | 0.03 | 0.00 | 25 | 1017.3 |
| 20260901220018 | 90 | 275 | 3.0 | 8.0 | 0.00 | 0.03 | 0.00 | 25 | 1017.2 |
| 20260901215507 | 90 | 334 | 4.0 | 8.0 | 0.00 | 0.03 | 0.00 | 24 | 1017.2 |
| 20260901215011 | 90 | 325 | 0.0 | 5.0 | 0.00 | 0.03 | 0.00 | 24 | 1017.2 |
| 20260901214517 | 90 | 249 | 1.0 | 5.0 | 0.00 | 0.03 | 0.00 | 26 | 1017.3 |
| 20260901214013 | 89 | 312 | 1.0 | 6.0 | 0.00 | 0.03 | 0.00 | 25 | 1017.3 |
| 20260901213512 | 89 | 96 | 1.0 | 6.0 | 0.00 | 0.03 | 0.00 | 25 | 1017.3 |
| 20260901213057 | 89 | 65 | 1.0 | 8.0 | 0.00 | 0.03 | 0.00 | 27 | 1017.4 |
| 20260901212514 | 89 | 245 | 3.0 | 13.0 | 0.00 | 0.03 | 0.00 | 27 | 1017.5 |
| 20260901212014 | 88 | 12 | 3.0 | 13.0 | 0.00 | 0.03 | 0.00 | 26 | 1017.6 |
| 20260901211529 | 88 | 45 | 6.0 | 11.0 | 0.00 | 0.03 | 0.00 | 27 | 1017.8 |
| 20260901211019 | 88 | 30 | 2.0 | 5.0 | 0.00 | 0.03 | 0.00 | 27 | 1017.8 |
| 20260901210515 | 88 | 69 | 2.0 | 5.0 | 0.00 | 0.03 | 0.00 | 27 | 1017.9 |
| 20260901210033 | 87 | 65 | 2.0 | 6.0 | 0.00 | 0.03 | 0.00 | 27 | 1018.1 |
| 20260901205518 | 86 | 77 | 2.0 | 6.0 | 0.00 | 0.03 | 0.00 | 28 | 1018.2 |
| 20260901205019 | 85 | 347 | 2.0 | 5.0 | 0.00 | 0.03 | 0.00 | 28 | 1018.2 |
| 20260901204512 | 84 | 306 | 0.0 | 5.0 | 0.00 | 0.03 | 0.00 | 31 | 1018.4 |
| 20260901204008 | 83 | 355 | 1.0 | 7.0 | 0.00 | 0.03 | 0.00 | 32 | 1018.4 |
| 20260901203510 | 82 | 308 | 1.0 | 9.0 | 0.00 | 0.03 | 0.00 | 33 | 1018.5 |
| 20260901203042 | 83 | 281 | 2.0 | 13.0 | 0.00 | 0.03 | 0.00 | 32 | 1018.7 |
| 20260901202511 | 83 | 287 | 7.0 | 16.0 | 0.00 | 0.03 | 0.00 | 31 | 1018.9 |
| 20260901202017 | 83 | 314 | 7.0 | 19.0 | 0.00 | 0.03 | 0.00 | 31 | 1018.9 |
| 20260901201525 | 85 | 283 | 10.0 | 19.0 | 0.00 | 0.03 | 0.00 | 28 | 1018.7 |
| 20260901201019 | 86 | 293 | 1.0 | 5.0 | 0.00 | 0.03 | 0.00 | 33 | 1018.6 |
| 20260901200516 | 86 | 323 | 0.0 | 2.0 | 0.00 | 0.03 | 0.00 | 34 | 1018.5 |
| 20260901200033 | 86 | 50 | 0.0 | 6.0 | 0.00 | 0.03 | 0.00 | 33 | 1018.4 |
| 20260901195514 | 86 | 50 | 1.0 | 6.0 | 0.00 | 0.03 | 0.00 | 34 | 1018.3 |
| 20260901195020 | 86 | 72 | 0.0 | 6.0 | 0.00 | 0.03 | 0.00 | 34 | 1018.4 |
| 20260901194542 | 86 | 63 | 2.0 | 6.0 | 0.00 | 0.03 | 0.00 | 35 | 1018.3 |
| 20260901194020 | 86 | 179 | 2.0 | 5.0 | 0.00 | 0.03 | 0.00 | 33 | 1018.4 |
| 20260901193508 | 86 | 200 | 0.0 | 10.0 | 0.00 | 0.03 | 0.00 | 35 | 1018.3 |
| 20260901193018 | 86 | 329 | 1.0 | 11.0 | 0.00 | 0.03 | 0.00 | 35 | 1018.3 |
| 20260901192512 | 87 | 214 | 5.0 | 11.0 | 0.00 | 0.03 | 0.00 | 34 | 1018.4 |
| 20260901192013 | 87 | 314 | 4.0 | 10.0 | 0.00 | 0.03 | 0.00 | 35 | 1018.4 |
| 20260901191525 | 86 | 82 | 5.0 | 9.0 | 0.00 | 0.03 | 0.00 | 35 | 1018.4 |
| 20260901191017 | 86 | 63 | 1.0 | 9.0 | 0.00 | 0.03 | 0.00 | 35 | 1018.5 |
| 20260901190514 | 86 | 47 | 1.0 | 9.0 | 0.00 | 0.03 | 0.00 | 37 | 1018.5 |
| 20260901190029 | 85 | 67 | 4.0 | 10.0 | 0.00 | 0.03 | 0.00 | 37 | 1018.5 |
| 20260901185517 | 85 | 75 | 3.0 | 10.0 | 0.00 | 0.03 | 0.00 | 38 | 1018.6 |
| 20260901185006 | 84 | 68 | 3.0 | 10.0 | 0.00 | 0.03 | 0.00 | 39 | 1018.6 |
| 20260901184519 | 84 | 54 | 4.0 | 11.0 | 0.00 | 0.03 | 0.00 | 39 | 1018.7 |
| 20260901184008 | 84 | 81 | 6.0 | 11.0 | 0.00 | 0.03 | 0.00 | 37 | 1018.7 |
| 20260901183509 | 84 | 351 | 5.0 | 11.0 | 0.00 | 0.03 | 0.00 | 39 | 1018.9 |
| 20260901183014 | 84 | 67 | 4.0 | 11.0 | 0.00 | 0.03 | 0.00 | 39 | 1019.0 |
| 20260901182508 | 84 | 73 | 4.0 | 11.0 | 0.00 | 0.03 | 0.00 | 42 | 1019.1 |
| 20260901182010 | 85 | 73 | 5.0 | 10.0 | 0.00 | 0.03 | 0.00 | 41 | 1019.1 |
| 20260901181523 | 85 | 63 | 3.0 | 8.0 | 0.00 | 0.03 | 0.00 | 42 | 1019.2 |
| 20260901181012 | 85 | 139 | 1.0 | 9.0 | 0.00 | 0.03 | 0.00 | 42 | 1019.2 |
| 20260901180516 | 85 | 85 | 3.0 | 9.0 | 0.00 | 0.03 | 0.00 | 42 | 1019.2 |
| 20260901180025 | 85 | 233 | 3.0 | 9.0 | 0.00 | 0.03 | 0.00 | 41 | 1019.5 |
| 20260901175516 | 85 | 205 | 2.0 | 8.0 | 0.00 | 0.03 | 0.00 | 40 | 1019.7 |
| 20260901175016 | 84 | 227 | 1.0 | 8.0 | 0.00 | 0.03 | 0.00 | 39 | 1019.7 |
| 20260901174529 | 84 | 180 | 2.0 | 8.0 | 0.00 | 0.03 | 0.00 | 38 | 1019.7 |
| 20260901174018 | 84 | 108 | 2.0 | 8.0 | 0.00 | 0.03 | 0.00 | 40 | 1019.5 |
| 20260901173508 | 83 | 247 | 3.0 | 8.0 | 0.00 | 0.03 | 0.00 | 40 | 1019.7 |
| 20260901173012 | 83 | 230 | 3.0 | 8.0 | 0.00 | 0.03 | 0.00 | 42 | 1019.6 |
| 20260901172508 | 83 | 287 | 1.0 | 6.0 | 0.00 | 0.03 | 0.00 | 40 | 1019.7 |
| 20260901172010 | 82 | 135 | 2.0 | 7.0 | 0.00 | 0.03 | 0.00 | 43 | 1019.7 |
| 20260901171517 | 81 | 52 | 2.0 | 7.0 | 0.00 | 0.03 | 0.00 | 44 | 1019.8 |
| 20260901171014 | 81 | 219 | 2.0 | 7.0 | 0.00 | 0.03 | 0.00 | 50 | 1019.9 |
| 20260901170512 | 81 | 157 | 2.0 | 5.0 | 0.00 | 0.03 | 0.00 | 51 | 1020.0 |
| 20260901170027 | 80 | 117 | 2.0 | 6.0 | 0.00 | 0.03 | 0.00 | 49 | 1019.9 |
| 20260901165514 | 80 | 216 | 2.0 | 6.0 | 0.00 | 0.03 | 0.00 | 52 | 1019.9 |
| 20260901165015 | 79 | 195 | 1.0 | 4.0 | 0.00 | 0.03 | 0.00 | 50 | 1020.0 |
| 20260901164528 | 79 | 146 | 1.0 | 5.0 | 0.00 | 0.03 | 0.00 | 51 | 1020.0 |
| 20260901164017 | 78 | 289 | 0.0 | 5.0 | 0.00 | 0.03 | 0.00 | 52 | 1020.0 |
| 20260901163517 | 78 | 216 | 2.0 | 5.0 | 0.00 | 0.03 | 0.00 | 50 | 1020.0 |
| 20260901163033 | 77 | 177 | 1.0 | 4.0 | 0.00 | 0.03 | 0.00 | 53 | 1019.9 |
| 20260901162507 | 77 | 129 | 0.0 | 4.0 | 0.00 | 0.03 | 0.00 | 55 | 1019.9 |
| 20260901162008 | 76 | 286 | 0.0 | 4.0 | 0.00 | 0.03 | 0.00 | 55 | 1019.9 |
| 20260901161514 | 75 | 131 | 0.0 | 3.0 | 0.00 | 0.03 | 0.00 | 56 | 1020.0 |
| 20260901161010 | 74 | 68 | 1.0 | 3.0 | 0.00 | 0.03 | 0.00 | 59 | 1020.0 |
| 20260901160513 | 73 | 285 | 0.0 | 2.0 | 0.00 | 0.03 | 0.00 | 60 | 1020.2 |
| 20260901160025 | 71 | 296 | 0.0 | 0.0 | 0.00 | 0.03 | 0.00 | 68 | 1020.2 |
| 20260901155513 | 70 | 287 | 0.0 | 0.0 | 0.00 | 0.03 | 0.00 | 68 | 1020.2 |